This is the latest recevied weather packets stored in our database for station/object N1CTF-9. If no packets are shown the sender has not sent any weather packets the latest 10 day(s).
| Time | Temp. | Humidity | Pressure | Rain* | Wind** | Luminosity | Snow |
|---|---|---|---|---|---|---|---|
| 1777394790 | 20° C | 68% | 1012.1 hPa | 0 mm | - | 104 W/m² | - |
| 1777394190 | 19.44° C | 71% | 1012.2 hPa | 0 mm | - | 119 W/m² | - |
| 1777393590 | 19.44° C | 73% | 1012.1 hPa | 0 mm | - | 258 W/m² | - |
| 1777392990 | 19.44° C | 70% | 1012.3 hPa | 0 mm | - | 938 W/m² | - |
| 1777392390 | 18.89° C | 74% | 1012.3 hPa | 0 mm | - | 102 W/m² | - |
| 1777391790 | 18.89° C | 77% | 1012.2 hPa | 0 mm | - | 279 W/m² | - |
| 1777391190 | 17.78° C | 79% | 1012.5 hPa | 0 mm | - | 109 W/m² | - |
| 1777390589 | 18.33° C | 81% | 1012.6 hPa | 0 mm | - | 271 W/m² | - |
| 1777389990 | 17.78° C | 85% | 1012.4 hPa | 0 mm | - | 672 W/m² | - |
| 1777389390 | 17.22° C | 87% | 1012.5 hPa | 0 mm | - | 369 W/m² | - |
| 1777388790 | 16.67° C | 90% | 1012.7 hPa | 0 mm | - | 341 W/m² | - |
| 1777388190 | 16.11° C | 92% | 1012.7 hPa | 0 mm | - | 352 W/m² | - |
| 1777387590 | 15° C | 94% | 1012.7 hPa | 0 mm | - | 228 W/m² | - |
| 1777386990 | 15° C | 94% | 1012.2 hPa | 0 mm | - | 141 W/m² | - |
| 1777386390 | 15° C | 95% | 1012.2 hPa | 0 mm | - | 210 W/m² | - |
| 1777385790 | 14.44° C | 95% | 1012.3 hPa | 0 mm | - | 161 W/m² | - |
| 1777385190 | 14.44° C | 96% | 1012.2 hPa | 0 mm | - | 107 W/m² | - |
| 1777384590 | 14.44° C | 96% | 1012.2 hPa | 0 mm | - | 117 W/m² | - |
| 1777383990 | 13.89° C | 96% | 1012 hPa | 0 mm | - | 126 W/m² | - |
| 1777383390 | 13.89° C | 96% | 1012.1 hPa | 0 mm | - | 100 W/m² | - |
| 1777382790 | 13.89° C | 95% | 1011.9 hPa | 0 mm | - | 489 W/m² | - |
| 1777382190 | 13.33° C | 95% | 1011.5 hPa | 0 mm | - | 557 W/m² | - |
| 1777381590 | 13.33° C | 94% | 1011.7 hPa | 0 mm | - | 619 W/m² | - |
| 1777380990 | 13.33° C | 94% | 1011.7 hPa | 0 mm | - | 514 W/m² | - |
| 1777380390 | 13.33° C | 94% | 1011.5 hPa | 0 mm | - | 538 W/m² | - |
* Rain latest hour (hover to see other rain measurements)
** Current wind speed in m/s (hover to see current wind gust speed)